Location: Keppel Henge
(44.7900°N, 80.9447°W)
Time: 11:52:02
(UTC-04:00)

Envisat - Pass Details

Date: 12 October 2017
Orbit: 764 x 766 km, 98.2° (Epoch: 21 October)

Event Time Altitude Azimuth Distance (km) Brightness Sun altitude
Exits shadow 19:53:44 19° 86° (E) 1,772 4.2 -13.2°
Maximum altitude 19:55:13 21° 62° (ENE) 1,656 4.2 -13.5°
Drops below altitude 10° 19:59:00 10° 14° (NNE) 2,312 5.4 -14.1°
Sets 20:01:46 0° 359° (N) 3,242 6.3 -14.6°
